Satellite: METEOR-M Catalog number: 35865 Epoch time: 11216.77784874 Element set: 609 Inclination: 098.7036 deg RA of node: 271.2685 deg Eccentricity: 0.0001666 Arg of perigee: 262.9906 deg Mean anomaly: 097.1061 deg Mean motion: 14.21840814 rev/day Decay rate: 1.76e-06 rev/day^2 Epoch rev: 9749 Checksum: 332
Satellite: RS-38 Catalog number: 35869 Epoch time: 11216.77190737 Element set: 599 Inclination: 098.6992 deg RA of node: 271.2949 deg Eccentricity: 0.0003878 Arg of perigee: 254.6504 deg Mean anomaly: 105.4204 deg Mean motion: 14.22017859 rev/day Decay rate: 1.77e-06 rev/day^2 Epoch rev: 9750 Checksum: 347
/EX
participants (1)
-
Ray Hoad